CW9009 Weather Reports


Display with metric or nautical units.
time (UTC)temp
F
wind
direction
speed
MPH
gust
MPH
rain 1hr
in
rain 24hr
in
rain mn
in
humidity
%
barometer
mb
20260901023417 80 0.0 0.0 0.00 0.00 0.00 39 1009.4
20260901022416 82 0.0 0.0 0.00 0.00 0.00 38 1009.4
20260901021417 83 0.0 0.0 0.00 0.00 0.00 37 1009.5
20260901020417 84 0.0 0.0 0.00 0.00 0.00 35 1009.6
20260901015437 85 0.0 0.0 0.00 0.00 0.00 34 1009.6
20260901014457 86 0.0 0.0 0.00 0.00 0.00 34 1009.7
20260901013453 87 0.0 0.0 0.00 0.00 0.00 33 1009.8
20260901012433 87 0.0 0.0 0.00 0.00 0.00 34 1009.8
20260901011418 88 0.0 0.0 0.00 0.00 0.00 33 1009.8
20260901010418 88 0.0 0.0 0.00 0.00 0.00 33 1009.8
20260901005418 88 0.0 0.0 0.00 0.00 0.00 33 1009.9
20260901004439 88 0.0 0.0 0.00 0.00 0.00 32 1009.9
20260901003419 88 0.0 0.0 0.00 0.00 0.00 32 1009.9
20260901002419 89 0.0 0.0 0.00 0.00 0.00 30 1010.1
20260901001419 88 0.0 0.0 0.00 0.00 0.00 30 1010.4
20260901000420 89 297 1.0 2.0 0.00 0.00 0.00 30 1010.5
20260831235419 89 285 0.0 1.0 0.00 0.00 0.00 29 1010.6
20260831234420 89 270 0.0 1.0 0.00 0.00 0.00 29 1010.7
20260831233420 89 0.0 0.0 0.00 0.00 0.00 29 1010.8
20260831232420 88 175 0.0 1.0 0.00 0.00 0.00 29 1010.8
20260831231420 88 0.0 0.0 0.00 0.00 0.00 29 1010.9
20260831230420 88 257 0.0 1.0 0.00 0.00 0.00 29 1011.0
20260831225420 88 0.0 0.0 0.00 0.00 0.00 30 1011.1
20260831224421 88 0.0 0.0 0.00 0.00 0.00 29 1011.3
20260831223420 87 0.0 0.0 0.00 0.00 0.00 29 1011.4
20260831222421 88 0.0 0.0 0.00 0.00 0.00 29 1011.7
20260831221421 88 0.0 0.0 0.00 0.00 0.00 28 1011.9
20260831220421 87 270 0.0 1.0 0.00 0.00 0.00 29 1012.1
20260831215421 86 74 1.0 2.0 0.00 0.00 0.00 30 1012.4
20260831214443 86 0.0 0.0 0.00 0.00 0.00 30 1012.5
20260831213422 85 0.0 0.0 0.00 0.00 0.00 32 1012.6
20260831212422 85 0 0.0 0.0 0.00 0.00 0.00 32 1012.8
20260831211423 84 0.0 0.0 0.00 0.00 0.00 30 1013.0
20260831210422 84 264 0.0 1.0 0.00 0.00 0.00 33 1013.2
20260831205423 84 282 1.0 2.0 0.00 0.00 0.00 34 1013.3
20260831204422 82 271 1.0 2.0 0.00 0.00 0.00 33 1013.5
20260831203443 82 3 1.0 2.0 0.00 0.00 0.00 35 1013.7
20260831202423 82 104 2.0 2.0 0.00 0.00 0.00 35 1013.8
20260831201423 80 305 1.0 3.0 0.00 0.00 0.00 34 1013.9
20260831200423 80 0.0 0.0 0.00 0.00 0.00 34 1014.1
20260831195444 79 273 0.0 1.0 0.00 0.00 0.00 38 1014.4
20260831194423 78 170 2.0 3.0 0.00 0.00 0.00 38 1014.5
20260831193424 78 0.0 0.0 0.00 0.00 0.00 39 1014.7
20260831192424 77 98 1.0 2.0 0.00 0.00 0.00 37 1014.7
20260831191424 76 262 4.0 6.0 0.00 0.00 0.00 38 1014.8
20260831190504 75 81 0.0 1.0 0.00 0.00 0.00 39 1015.0
20260831185424 74 270 1.0 3.0 0.00 0.00 0.00 42 1015.2
20260831184445 74 0.0 0.0 0.00 0.00 0.00 42 1015.3
20260831183425 73 127 1.0 2.0 0.00 0.00 0.00 42 1015.6
20260831182425 72 0.0 0.0 0.00 0.00 0.00 44 1015.6
20260831181425 71 275 2.0 3.0 0.00 0.00 0.00 42 1015.9
20260831180425 70 315 1.0 4.0 0.00 0.00 0.00 44 1015.9
20260831175426 69 0.0 0.0 0.00 0.00 0.00 45 1016.1
20260831174426 69 124 1.0 2.0 0.00 0.00 0.00 45 1016.2
20260831173426 68 0.0 0.0 0.00 0.00 0.00 47 1016.2
20260831172426 67 0.0 0.0 0.00 0.00 0.00 47 1016.2
20260831171427 67 184 0.0 2.0 0.00 0.00 0.00 45 1016.2
20260831170427 65 0.0 0.0 0.00 0.00 0.00 45 1016.3
20260831165446 64 0 0.0 0.0 0.00 0.00 0.00 45 1016.3
20260831164427 64 87 0.0 2.0 0.00 0.00 0.00 45 1016.4
20260831163447 63 0.0 0.0 0.00 0.00 0.00 48 1016.5
20260831162427 62 353 0.0 1.0 0.00 0.00 0.00 49 1016.6
20260831161427 60 0 0.0 0.0 0.00 0.00 0.00 50 1016.7
20260831160427 59 82 1.0 1.0 0.00 0.00 0.00 52 1016.9
20260831155428 58 0.0 0.0 0.00 0.00 0.00 53 1017.0
20260831154427 56 162 1.0 1.0 0.00 0.00 0.00 54 1017.0
20260831153428 55 182 1.0 2.0 0.00 0.00 0.00 57 1017.1
20260831152428 54 159 1.0 3.0 0.00 0.00 0.00 58 1017.0
20260831151428 53 0 0.0 1.0 0.00 0.00 0.00 58 1017.1
20260831150429 52 188 1.0 3.0 0.00 0.00 0.00 59 1017.1
20260831145428 52 110 0.0 1.0 0.00 0.00 0.00 59 1017.0
20260831144449 51 28 1.0 2.0 0.00 0.00 0.00 59 1017.0
20260831143429 51 91 1.0 2.0 0.00 0.00 0.00 59 1017.0
20260831142449 50 85 2.0 3.0 0.00 0.00 0.00 60 1016.9
20260831141429 49 50 2.0 2.0 0.00 0.00 0.00 60 1016.9
20260831140450 49 74 2.0 3.0 0.00 0.00 0.00 60 1016.7
20260831135430 49 57 2.0 2.0 0.00 0.00 0.00 59 1016.7
20260831134430 49 68 2.0 3.0 0.00 0.00 0.00 59 1016.7
20260831133430 48 149 1.0 1.0 0.00 0.00 0.00 60 1016.7
20260831132431 48 6 2.0 2.0 0.00 0.00 0.00 60 1016.4
20260831131430 48 7 2.0 3.0 0.00 0.00 0.00 62 1016.5
20260831130431 48 167 1.0 1.0 0.00 0.00 0.00 63 1016.4
20260831125431 48 259 1.0 2.0 0.00 0.00 0.00 63 1016.4
20260831124431 49 263 1.0 1.0 0.00 0.00 0.00 63 1016.4
20260831123431 49 98 1.0 1.0 0.00 0.00 0.00 63 1016.3
20260831122431 49 49 1.0 2.0 0.00 0.00 0.00 63 1016.3
20260831121437 49 224 1.0 1.0 0.00 0.00 0.00 64 1016.2
20260831120417 0 21 2.0 3.0 0.00 0.00 0.00
20260831115417 49 198 1.0 1.0 0.00 0.00 0.00 65 1016.3
20260831114437 0 5 2.0 3.0 0.00 0.00 0.00
20260831113438 50 7 3.0 3.0 0.00 0.00 0.00 64 1016.3
20260831112438 51 5 2.0 2.0 0.00 0.00 0.00 63 1016.2
20260831111418 0 206 1.0 1.0 0.00 0.00 0.00
20260831110418 0 214 1.0 1.0 0.00 0.00 0.00
20260831105418 51 27 2.0 3.0 0.00 0.00 0.00 60 1016.3
20260831104418 52 33 2.0 3.0 0.00 0.00 0.00 58 1016.3
20260831103418 52 42 2.0 3.0 0.00 0.00 0.00 59 1016.3
20260831102418 51 48 1.0 2.0 0.00 0.00 0.00 59 1016.2
20260831101419 51 204 1.0 1.0 0.00 0.00 0.00 60 1016.2
20260831100419 51 339 1.0 2.0 0.00 0.00 0.00 60 1016.2
20260831095419 51 359 2.0 2.0 0.00 0.00 0.00 60 1016.2
20260831094419 52 214 1.0 1.0 0.00 0.00 0.00 59 1016.2
20260831093419 52 21 1.0 2.0 0.00 0.00 0.00 57 1016.2
20260831092419 53 174 1.0 1.0 0.00 0.00 0.00 57 1016.1
20260831091440 53 62 1.0 2.0 0.00 0.00 0.00 55 1016.0
20260831090420 53 60 1.0 2.0 0.00 0.00 0.00 57 1016.0
20260831085420 54 50 1.0 2.0 0.00 0.00 0.00 57 1016.0
20260831084420 54 79 1.0 2.0 0.00 0.00 0.00 54 1016.0
20260831083420 54 86 1.0 1.0 0.00 0.00 0.00 54 1016.1
20260831082421 54 58 2.0 2.0 0.00 0.00 0.00 54 1016.1
20260831081421 54 72 1.0 1.0 0.00 0.00 0.00 54 1016.0
20260831080421 55 108 2.0 2.0 0.00 0.00 0.00 54 1016.0
20260831075421 55 0.0 0.0 0.00 0.00 0.00 57 1016.1
20260831074421 55 104 1.0 1.0 0.00 0.00 0.00 58 1016.1
20260831073421 55 0.0 0.0 0.00 0.00 0.00 60 1016.2
20260831072421 56 0 0.0 0.0 0.00 0.00 0.00 62 1016.2
20260831071422 56 44 1.0 1.0 0.00 0.00 0.00 63 1016.2
20260831070422 56 0.0 0.0 0.00 0.00 0.00 59 1016.1
20260831065422 57 0.0 0.0 0.00 0.00 0.00 57 1016.1
20260831064422 57 0.0 0.0 0.00 0.00 0.00 55 1016.2
20260831063423 58 62 1.0 1.0 0.00 0.00 0.00 57 1016.2
20260831062603 58 106 2.0 3.0 0.00 0.00 0.00 63 1016.2
20260831061423 58 121 1.0 1.0 0.00 0.00 0.00 58 1016.2
20260831060443 60 81 0.0 1.0 0.00 0.00 0.00 55 1016.2
20260831055443 60 0.0 0.0 0.00 0.00 0.00 55 1016.1
20260831054424 60 119 2.0 2.0 0.00 0.00 0.00 59 1016.0
20260831053424 61 73 1.0 2.0 0.00 0.00 0.00 54 1016.0
20260831052423 62 100 1.0 2.0 0.00 0.00 0.00 54 1016.0
20260831051424 62 109 1.0 2.0 0.00 0.00 0.00 53 1016.0
20260831050424 63 0 0.0 0.0 0.00 0.00 0.00 52 1016.1
20260831045424 63 0.0 0.0 0.00 0.00 0.00 49 1016.0
20260831044424 64 0.0 0.0 0.00 0.00 0.00 49 1016.0
20260831043424 64 0.0 0.0 0.00 0.00 0.00 48 1016.0
20260831042425 65 111 2.0 3.0 0.00 0.00 0.00 48 1016.0
20260831041445 65 0.0 0.0 0.00 0.00 0.00 47 1016.1
20260831040425 66 0.0 0.0 0.00 0.00 0.00 48 1016.0
20260831035425 66 0.0 0.0 0.00 0.00 0.00 47 1015.8
20260831034425 67 0.0 0.0 0.00 0.00 0.00 47 1015.8
20260831033425 68 0.0 0.0 0.00 0.00 0.00 43 1015.8
20260831032425 69 0.0 0.0 0.00 0.00 0.00 42 1015.7
20260831031426 69 0.0 0.0 0.00 0.00 0.00 40 1015.6
20260831030426 70 0.0 0.0 0.00 0.00 0.00 42 1015.6
20260831025446 71 0.0 0.0 0.00 0.00 0.00 42 1015.4
20260831024426 71 0.0 0.0 0.00 0.00 0.00 39 1015.3